Tracking 33744 objects as of 12-Apr-2026
HD Live streaming from Space Station
objects crossing your sky now

DELTA 1 DEB

Track DELTA 1 DEB now!
10-day predictions


NORAD ID: 7015
Int'l Code: 1973-086F
Perigee: 1,512.6 km
Apogee: 2,172.7 km
Inclination: 101.8 °
Period: 123.5 minutes
Semi major axis: 8213 km
RCS: 0.3794 m2 (medium)
Launch date: November 6, 1973
Source: United States (US)
Launch site: AIR FORCE WESTERN TEST RANGE (AFWTR)

Note: This is SATELLITE DEBRIS
Your satellite tracking list
Your tracking list is empty




NASA's NSSDC Master Catalog

Two Line Element Set (TLE):
1 07015U 73086F   26102.33683025  .00000007  00000-0  60522-3 0  9993
2 07015 101.7602 263.1922 0401876 119.7915 356.1796 11.66267276232138
Source of the keplerian elements: AFSPC